Windom, MN

2:33 AM CDT on May 23, 2018 (GMT -0500)
Windom Municipal

Weather History for KMWM - September, 2011

Change the Weather History Date:

Thursday, September 8, 2011

  Actual Average Record
Temperature  
Mean Temperature 66 °F -  
Max Temperature 82 °F 79 °F 96 °F (1971)
Min Temperature 51 °F 52 °F 37 °F (2010)
Cooling Degree Days 2    
Growing Degree Days 16 (Base 50)    
Moisture  
Dew Point 56 °F    
Average Humidity 73    
Maximum Humidity 100    
Minimum Humidity 42    
Precipitation  
Precipitation 0.00 in - - ()
Sea Level Pressure  
Sea Level Pressure 30.28 in    
Wind  
Wind Speed 3 mph (North)    
Max Wind Speed 10 mph    
Max Gust Speed -    
Visibility 10 miles    
Events      
Averages and records for this station are not official NWS values.
T = Trace of Precipitation, MM = Missing Value Source: NWS Daily Summary

Daily Weather History Graph

Daily Weather History Graph

Search for Another Location

Airport or City:

Astronomy

Sep. 08, 2011 Rise Set
Actual Time 6:51 AM CDT 7:44 PM CDT
Civil Twilight 6:22 AM CDT 8:13 PM CDT
Nautical Twilight 5:47 AM CDT 8:48 PM CDT
Astronomical Twilight 5:10 AM CDT 9:24 PM CDT
Moon 5:43 PM CDT (9/8) 3:04 AM CDT (9/8)
Length of Visible Light 13h 51m
Length of Day
12h 52m
Waxing Gibbous, 87% of the Moon is Illuminated
Sep 8
Waxing Gibbous
Sep 12
Full
Sep 20
Last Quarter
Sep 27
New
Oct 3
First Quarter

Hourly Weather History & Observations

Time (CDT) Temp. Heat Index Dew Point Humidity Pressure Visibility Wind Dir Wind Speed Gust Speed Precip Events Conditions
12:12 AM 57.2 °F - 55.4 °F 94% 30.31 in 10.0 mi Calm Calm - N/A   Clear
12:33 AM 55.4 °F - 51.8 °F 88% 30.31 in 10.0 mi Calm Calm - N/A   Clear
12:52 AM 55.4 °F - 53.6 °F 94% 30.31 in 10.0 mi Calm Calm - N/A   Clear
1:13 AM 57.2 °F - 53.6 °F 88% 30.31 in 10.0 mi Calm Calm - N/A   Clear
1:33 AM 53.6 °F - 51.8 °F 94% 30.31 in 10.0 mi Calm Calm - N/A   Clear
1:52 AM 55.4 °F - 51.8 °F 88% 30.31 in 10.0 mi Calm Calm - N/A   Clear
2:13 AM 53.6 °F - 51.8 °F 94% 30.30 in 10.0 mi Calm Calm - N/A   Clear
2:32 AM 53.6 °F - 51.8 °F 94% 30.30 in 10.0 mi Calm Calm - N/A   Clear
2:52 AM 53.6 °F - 51.8 °F 94% 30.30 in 10.0 mi Calm Calm - N/A   Clear
3:13 AM 53.6 °F - 51.8 °F 94% 30.31 in 10.0 mi Calm Calm - N/A   Clear
3:32 AM 53.6 °F - 51.8 °F 94% 30.31 in 10.0 mi Calm Calm - N/A   Clear
3:53 AM 51.8 °F - 51.8 °F 100% 30.31 in 10.0 mi Calm Calm - N/A   Clear
4:12 AM 51.8 °F - 50.0 °F 94% 30.31 in 10.0 mi Calm Calm - N/A   Clear
4:32 AM 51.8 °F - 50.0 °F 94% 30.31 in 10.0 mi Calm Calm - N/A   Clear
4:53 AM 51.8 °F - 50.0 °F 94% 30.31 in 10.0 mi WNW 3.5 mph - N/A   Clear
5:12 AM 53.6 °F - 51.8 °F 94% 30.31 in 10.0 mi Calm Calm - N/A   Clear
5:33 AM 53.6 °F - 51.8 °F 94% 30.31 in 10.0 mi Calm Calm - N/A   Clear
5:52 AM 51.8 °F - 51.8 °F 100% 30.31 in 10.0 mi Calm Calm - N/A   Clear
6:13 AM 53.6 °F - 51.8 °F 94% 30.31 in 10.0 mi Calm Calm - N/A   Clear
6:32 AM 51.8 °F - 50.0 °F 94% 30.32 in 10.0 mi Calm Calm - N/A   Clear
6:53 AM 51.8 °F - 51.8 °F 100% 30.32 in 10.0 mi Calm Calm - N/A   Clear
7:12 AM 51.8 °F - 51.8 °F 100% 30.32 in 10.0 mi Calm Calm - N/A   Clear
7:33 AM 53.6 °F - 51.8 °F 94% 30.33 in 10.0 mi Calm Calm - N/A   Clear
7:53 AM 55.4 °F - 53.6 °F 94% 30.33 in 10.0 mi Calm Calm - N/A   Clear
8:12 AM 57.2 °F - 55.4 °F 94% 30.33 in 10.0 mi Calm Calm - N/A   Clear
8:33 AM 64.4 °F - 57.2 °F 77% 30.33 in 10.0 mi Calm Calm - N/A   Clear
8:53 AM 66.2 °F - 57.2 °F 73% 30.33 in 10.0 mi North 5.8 mph - N/A   Clear
9:12 AM 68.0 °F - 59.0 °F 73% 30.33 in 10.0 mi North 3.5 mph - N/A   Clear
9:33 AM 69.8 °F - 60.8 °F 73% 30.33 in 10.0 mi NNW 4.6 mph - N/A   Clear
9:52 AM 71.6 °F - 60.8 °F 69% 30.33 in 10.0 mi NNW 5.8 mph - N/A   Clear
10:13 AM 73.4 °F - 59.0 °F 61% 30.33 in 10.0 mi NNW 8.1 mph - N/A   Clear
10:52 AM 75.2 °F - 59.0 °F 57% 30.33 in 10.0 mi North 8.1 mph - N/A   Clear
11:13 AM 75.2 °F - 59.0 °F 57% 30.32 in 10.0 mi North 8.1 mph - N/A   Clear
11:32 AM 77.0 °F - 60.8 °F 57% 30.32 in 10.0 mi NNW 9.2 mph - N/A   Clear
11:52 AM 77.0 °F - 60.8 °F 57% 30.31 in 10.0 mi NNE 6.9 mph - N/A   Clear
12:13 PM 78.8 °F - 60.8 °F 54% 30.31 in 10.0 mi NNW 10.4 mph - N/A   Clear
12:32 PM 78.8 °F - 57.2 °F 47% 30.30 in 10.0 mi North 8.1 mph - N/A   Clear
12:53 PM 78.8 °F - 59.0 °F 51% 30.29 in 10.0 mi North 6.9 mph - N/A   Scattered Clouds
1:12 PM 80.6 °F 81.1 °F 59.0 °F 48% 30.28 in 10.0 mi North 3.5 mph - N/A   Clear
1:32 PM 80.6 °F 80.8 °F 57.2 °F 45% 30.28 in 10.0 mi North 6.9 mph - N/A   Scattered Clouds
2:12 PM 80.6 °F 80.8 °F 57.2 °F 45% 30.27 in 10.0 mi NNW 8.1 mph - N/A   Scattered Clouds
2:33 PM 80.6 °F 80.8 °F 57.2 °F 45% 30.26 in 10.0 mi North 8.1 mph - N/A   Scattered Clouds
2:52 PM 80.6 °F 80.8 °F 57.2 °F 45% 30.25 in 10.0 mi NNE 8.1 mph - N/A   Scattered Clouds
3:12 PM 78.8 °F - 57.2 °F 47% 30.24 in 10.0 mi North 6.9 mph - N/A   Scattered Clouds
3:33 PM 82.4 °F 82.0 °F 57.2 °F 42% 30.23 in 10.0 mi North 3.5 mph - N/A   Clear
3:52 PM 82.4 °F 82.0 °F 57.2 °F 42% 30.22 in 10.0 mi NNW 8.1 mph - N/A   Scattered Clouds
4:12 PM 80.6 °F 80.8 °F 57.2 °F 45% 30.22 in 10.0 mi NNW 4.6 mph - N/A   Scattered Clouds
4:32 PM 82.4 °F 82.0 °F 57.2 °F 42% 30.21 in 10.0 mi North 5.8 mph - N/A   Scattered Clouds
4:52 PM 80.6 °F 80.8 °F 57.2 °F 45% 30.21 in 10.0 mi North 6.9 mph - N/A   Scattered Clouds
5:12 PM 78.8 °F - 60.8 °F 54% 30.20 in 10.0 mi NNW 9.2 mph - N/A   Scattered Clouds
5:33 PM 82.4 °F 82.5 °F 59.0 °F 45% 30.20 in 10.0 mi North 10.4 mph - N/A   Mostly Cloudy
5:52 PM 80.6 °F 81.1 °F 59.0 °F 48% 30.20 in 10.0 mi North 4.6 mph - N/A   Scattered Clouds
6:13 PM 80.6 °F 81.5 °F 60.8 °F 51% 30.19 in 10.0 mi North 8.1 mph - N/A   Clear
6:32 PM 78.8 °F - 60.8 °F 54% 30.19 in 10.0 mi North 6.9 mph - N/A   Clear
7:12 PM 75.2 °F - 62.6 °F 65% 30.18 in 10.0 mi NNW 4.6 mph - N/A   Clear
7:32 PM 71.6 °F - 62.6 °F 73% 30.18 in 10.0 mi North 6.9 mph - N/A   Clear
7:53 PM 69.8 °F - 60.8 °F 73% 30.18 in 10.0 mi NNW 6.9 mph - N/A   Clear
8:12 PM 66.2 °F - 60.8 °F 83% 30.18 in 10.0 mi NNW 6.9 mph - N/A   Clear
8:32 PM 66.2 °F - 60.8 °F 83% 30.18 in 10.0 mi NNW 8.1 mph - N/A   Clear
8:53 PM 64.4 °F - 60.8 °F 88% 30.18 in 10.0 mi NNW 8.1 mph - N/A   Clear
9:12 PM 64.4 °F - 60.8 °F 88% 30.18 in 10.0 mi NNW 8.1 mph - N/A   Clear
9:32 PM 64.4 °F - 60.8 °F 88% 30.18 in 10.0 mi NNW 8.1 mph - N/A   Clear
9:52 PM 64.4 °F - 60.8 °F 88% 30.18 in 10.0 mi NNW 12.7 mph - N/A   Clear
10:13 PM 64.4 °F - 60.8 °F 88% 30.19 in 10.0 mi NNW 11.5 mph - N/A   Clear
10:32 PM 64.4 °F - 59.0 °F 83% 30.19 in 10.0 mi NNW 13.8 mph - N/A   Clear
10:53 PM 64.4 °F - 60.8 °F 88% 30.18 in 10.0 mi NNW 8.1 mph - N/A   Clear
11:12 PM 64.4 °F - 59.0 °F 83% 30.18 in 10.0 mi NNW 8.1 mph - N/A   Clear
11:33 PM 64.4 °F - 59.0 °F 83% 30.18 in 10.0 mi NNW 8.1 mph - N/A   Clear
11:52 PM 64.4 °F - 59.0 °F 83% 30.17 in 10.0 mi NNW 12.7 mph 16.1 mph N/A   Clear